Tracking 25734 objects as of 26-May-2022
HD Live streaming from Space Station
objects crossing your sky now

COSMOS 1275 DEB

Track COSMOS 1275 DEB now!
10-day predictions


NORAD ID: 12749
Int'l Code: 1981-053CS
Perigee: 943.4 km
Apogee: 1,036.9 km
Inclination: 82.8 °
Period: 104.8 minutes
Semi major axis: 7361 km
RCS: 0.0541 m2 (small)
Launch date: June 4, 1981
Source: Commonwealth of Independent States (former USSR) (CIS)
Launch site: PLESETSK MISSILE AND SPACE COMPLEX (PKMTR)

Note: This is SATELLITE DEBRIS
aabbcc
Your satellite tracking list
Your tracking list is empty




NASA's NSSDC Master Catalog

Two Line Element Set (TLE):
1 12749U 81053CS  22145.88292821  .00000446  00000-0  44893-3 0  9999
2 12749  82.8087 115.4012 0063520 350.6562  78.2395 13.74628727 42125
Source of the keplerian elements: AFSPC